Location: *
(34.6903°N, 135.5184°E)
Time: 19:25:44
(UTC+00:00)

Meteor 2-4 Rocket - Pass Details

Date: 22 September 2019
Orbit: 799 x 908 km, 81.2° (Epoch: 15 October)

Event Time Altitude Azimuth Distance (km) Brightness Sun altitude
Rises 20:12:12 0° 185° (S) 3,315 6.7 -7.8°
Reaches altitude 10° 20:14:35 10° 184° (S) 2,378 6.0 -7.3°
Maximum altitude 20:19:56 84° 96° (E) 809 3.7 -6.2°
Drops below altitude 10° 20:25:18 10° 10° (N) 2,380 6.2 -5.1°
Sets 20:27:41 0° 10° (N) 3,317 7.0 -4.6°
